FW6376 Weather Reports


Display with metric or nautical units.
time (UTC)temp
F
wind
direction
speed
MPH
gust
MPH
rain 1hr
in
rain 24hr
in
rain mn
in
humidity
%
barometer
mb
20260502210046 51 69 0.0 8.0 0.00 0.22 0.22 61 1010.9
20260502204548 52 325 1.0 6.0 0.00 0.22 0.22 60 1011.0
20260502203047 51 333 0.0 2.0 0.00 0.22 0.22 64 1011.0
20260502201543 51 152 0.0 3.0 0.00 0.22 0.22 62 1011.2
20260502200042 51 118 2.0 4.0 0.00 0.22 0.22 64 1011.2
20260502194541 51 123 1.0 3.0 0.00 0.22 0.22 64 1011.5
20260502193045 52 286 0.0 3.0 0.01 0.22 0.22 67 1011.7
20260502191535 51 285 1.0 4.0 0.03 0.22 0.22 67 1011.8
20260502190033 50 244 0.0 5.0 0.03 0.22 0.22 70 1012.0
20260502184528 49 238 0.0 3.0 0.04 0.22 0.22 72 1012.1
20260502183026 47 127 0.0 2.0 0.05 0.21 0.21 75 1012.0
20260502181525 47 128 0.0 3.0 0.03 0.19 0.19 73 1012.3
20260502163122 47 159 0.0 2.0 0.01 0.12 0.12 71 1012.1
20260502161519 48 160 0.0 2.0 0.00 0.11 0.11 71 1012.0
20260502151509 46 207 0.0 1.0 0.01 0.11 0.11 77 1012.4
20260502130113 41 198 0.0 1.0 0.01 0.10 0.10 80 1013.1
20260502123119 41 198 0.0 1.0 0.01 0.10 0.10 80 1013.3
20260502121548 40 198 0.0 1.0 0.01 0.10 0.10 81 1013.1
20260502114550 40 198 0.0 0.0 0.00 0.09 0.09 80 1013.2
20260502113044 40 198 0.0 0.0 0.00 0.09 0.09 80 1013.2
20260502111542 40 198 0.0 2.0 0.00 0.09 0.09 80 1013.3
20260502110047 40 198 0.0 2.0 0.01 0.09 0.09 80 1012.9
20260502104541 40 198 0.0 1.0 0.01 0.09 0.09 80 1012.9
20260502103039 40 198 0.0 1.0 0.01 0.09 0.09 80 1012.7
20260502101545 40 198 0.0 0.0 0.01 0.09 0.09 80 1012.8
20260502071529 38 198 0.0 0.0 0.00 0.03 0.03 76 1013.0
20260502070025 38 198 0.0 0.0 0.03 0.03 0.03 74 1013.0
20260502064520 38 198 0.0 1.0 0.03 0.03 0.03 71 1013.4
20260502063019 38 198 0.0 1.0 0.03 0.03 0.03 68 1013.3
20260502061517 38 198 0.0 1.0 0.03 0.03 0.03 66 1013.4
20260502060015 38 198 0.0 2.0 0.00 0.00 0.00 65 1013.5
20260502054521 38 198 0.0 0.0 0.00 0.00 0.00 64 1013.5
20260502053010 37 198 0.0 0.0 0.00 0.00 0.00 64 1013.3
20260502051515 37 198 0.0 1.0 0.00 0.00 0.00 65 1013.2
20260502050017 37 199 0.0 1.0 0.00 0.00 0.00 66 1013.3
20260502044504 36 199 0.0 0.0 0.00 0.00 0.00 66 1013.0
20260502043119 36 199 0.0 0.0 0.00 0.00 0.00 66 1012.8
20260502041558 36 199 0.0 0.0 0.00 0.00 0.00 66 1013.0
20260502040105 35 199 0.0 0.0 0.00 0.00 0.00 66 1013.0
20260502034602 35 199 0.0 0.0 0.00 0.00 0.00 66 1013.0
20260502033056 36 199 0.0 0.0 0.00 0.00 0.00 66 1013.0
20260502031552 36 199 0.0 0.0 0.00 0.00 0.00 65 1012.9
20260502030051 37 199 0.0 0.0 0.00 0.00 0.00 65 1012.8
20260502024608 38 199 0.0 0.0 0.00 0.00 0.00 64 1012.8
20260502023051 38 199 0.0 0.0 0.00 0.00 0.00 64 1012.8
20260502021555 39 199 0.0 0.0 0.00 0.00 0.00 62 1012.8
20260502020051 40 199 0.0 0.0 0.00 0.00 0.00 61 1012.8
20260502014549 40 199 0.0 0.0 0.00 0.01 0.00 62 1012.7
20260502013047 40 199 0.0 0.0 0.00 0.01 0.00 61 1012.7
20260502011547 41 199 0.0 0.0 0.00 0.01 0.00 59 1012.5
20260502010052 42 199 0.0 0.0 0.00 0.01 0.00 58 1012.4
20260502004558 43 199 0.0 0.0 0.00 0.03 0.00 56 1012.1
20260502003043 44 199 0.0 0.0 0.00 0.03 0.00 54 1012.0
20260502001543 45 199 0.0 0.0 0.00 0.03 0.00 53 1011.7
20260502000043 46 199 0.0 0.0 0.00 0.03 0.00 54 1011.7
20260501234542 48 199 0.0 0.0 0.00 0.06 0.00 51 1011.4
20260501233046 50 199 0.0 0.0 0.00 0.06 0.00 47 1011.1
20260501231543 52 199 0.0 2.0 0.00 0.06 0.00 46 1011.0
20260501230041 53 199 0.0 2.0 0.00 0.06 0.00 28 1010.8
20260501224547 54 191 0.0 3.0 0.00 0.07 0.00 27 1010.7
20260501223040 55 186 0.0 3.0 0.00 0.07 0.00 26 1010.9
20260501221539 57 242 0.0 3.0 0.00 0.07 0.00 23 1010.7
20260501220048 57 207 0.0 5.0 0.00 0.07 0.00 23 1010.7
20260501214539 56 200 0.0 3.0 0.00 0.07 0.00 24 1010.9
20260501213047 59 287 1.0 8.0 0.00 0.07 0.00 21 1010.8
20260501211538 58 315 0.0 3.0 0.00 0.07 0.00 21 1010.6